SCOUT G-1 DEB, 40216

Orbit data source: Space-Track

SCOUT G-1 DEB, 40216 is space debris in LEO originally from a launch on Fri, 14 Nov 1986 UTC launched from the Air Force Western Test Range (AFWTR). Debris objects in space refer to the collection of defunct objects orbiting the Earth. Examples of debris include non-operational satellites, rocket bodies, and fragments generated from explosions, collisions, or faulty payload assembly.

Loading next visibility...
Identifier
40216, 1986-088E
Orbit
LEO
Country
Flag of USUS
Related business
Manufacturer
Unknown
Mission
Spacecraft
Bus & Motor
Unknown
Mass
Unknown
Launch date (UTC)
1986-11-14 (40 years ago)
Launch vehicle
Unknown
Launch site
Air Force Western Test Range (AFWTR)
Object type
Payload
Rocket body
Debris
Shape & HBR
Unknown shape, 0.1 m
Radar Cross Section
Small (<0.1 m²)

Expand to show TLE details & history
Last TLE update: 1 month ago

TLE from 1 month ago
0 SCOUT G-1 DEB
1 40216U 86088E   26197.67240826  .00001568  00000-0  10483-2 0  9991
2 40216  89.5914 159.3745 0071846   7.2395 352.9803 13.99300480628954
Epoch: 2026-07-16T16:08Z
TLE epoch observation values (Epoch: 2026-07-16T16:08:16.073Z)
Latitude
-0.00004°
Longitude
-17.20297°
Altitude
847.367 km
Speed
7.455 km/s
True Right ascension
10h 37m 29s
True Declination
0° 00' 00"
Sunlit
Object was in daylight at epoch
Visualization orbit readout
Latitude
Unknown
Longitude
Unknown
Altitude
Unknown
Speed
Unknown
Apparent Right ascension
Unknown
Apparent Declination
Unknown
Sunlit
N/A
Visualization observer readout
Local Sidereal Time
12:59:55
Azimuth
Unknown
Elevation
Unknown
Doppler factor
Unknown
Orbital elements
Apogee altitude
945.439 km
Perigee altitude
840.955 km
Semi-major axis
7,271.334 km
Eccentricity
0.00718
Inclination
89.5914°
RAAN
159.3745°
Arg. of periapsis
7.2395°
True anomaly
352.87878°
Mean anomaly
352.9803°
Eccentric anomaly
352.92963°
Mean motion
3.50044 °/min
Orbital period
102.84 mins
BSTAR
0.0010483
Loading maneuver chart data...
Computing Atmospheric mass density...
Loading historical data...
Loading historical data...
Loading historical data...
Loading historical data...
Loading historical data...
Loading historical data...
Loading historical data...
Other satellites on launch #88 in the year 1986 (1986-11-14 UTC)

Documentation

Showing up to 5 results
|